[[{"header":{"parameterUnit":"m.s-1","parameterCategory":1,"la1":30.2991,"la2":30.254,"lo1":-89.0895,"lo2":-89.0444,"dy":0.0017,"dx":0.0017,"nx":28,"ny":28,"refTime":"2026-02-13T03:00:00:Z","depth":0,"parameterNumber":2,"parameterNumberName":"U-component_of_WINDS"},"data":[0,0,0,0,0,0,0,0,0,0,0,0,0,0,0,0,0,0,0,0,0,0,0,0,0,0,0,0,0,0,0,0,0,0,0,0,0,0,0,0,0,0,0,0,0,0,0,0,0,0,0,0,0,0,0,0,0,0,-4.3784,-4.3785,0,-4.3873,-4.3874,-4.3875,-4.388,-4.3879,-4.3878,-4.3877,-4.3966,-4.3969,-4.3972,0,0,0,0,0,0,0,0,0,0,0,0,0,-4.3621,-4.3624,-4.3784,-4.3785,-4.3786,-4.3872,-4.3874,-4.3875,-4.388,-4.3879,-4.3877,-4.3876,-4.3965,-4.3969,-4.3973,0,0,0,0,0,0,0,0,0,0,0,0,0,-4.3699,-4.3625,-4.3784,-4.3799,-4.3802,-4.3872,-4.3874,-4.3875,-4.388,-4.3879,-4.3877,-4.3876,-4.3963,-4.3968,-4.3973,-4.4034,0,0,-4.3988,-4.399,0,0,0,0,0,0,0,0,-4.3694,-4.3705,-4.3796,-4.3798,-4.3801,-4.3864,-4.3849,-4.3928,-4.3881,-4.385,-4.3877,-4.3875,-4.3933,-4.394,-4.396,-4.4038,-4.4042,-4.3989,-4.3992,-4.3994,-4.3995,0,0,0,0,0,0,0,-4.3689,-4.3701,-4.3819,-4.3797,-4.38,-4.3802,-4.3812,-4.3864,-4.3899,-4.3853,-4.3853,-4.3864,-4.3934,-4.3955,-4.3962,-4.4043,-4.3989,-4.3993,-4.3996,-4.3998,-4.4178,-4.418,0,0,0,0,0,0,-4.3681,-4.3696,-4.3816,-4.3822,-4.3743,-4.3806,-4.3817,-4.3845,-4.3898,-4.3905,-4.3865,-4.3864,-4.3948,-4.3956,-4.3965,-4.4041,-4.3994,-4.3998,-4.4001,-4.4177,-4.4179,-4.4181,0,0,0,0,0,0,-4.3677,-4.3691,-4.3813,-4.3759,-4.3775,-4.3811,-4.3842,-4.3848,-4.3869,-4.3908,-4.3914,-4.388,-4.3947,-4.3958,-4.4018,-4.4044,-4.4001,-4.4005,-4.4174,-4.4177,-4.418,-4.4192,0,0,0,0,0,0,-4.3672,-4.369,-4.3713,-4.376,-4.3778,-4.3863,-4.3844,-4.385,-4.3878,-4.3877,-4.3924,-4.393,-4.3946,-4.401,-4.4022,-4.405,-4.4009,-4.4172,-4.4176,-4.4179,-4.4189,-4.4195,-4.4199,0,0,0,0,0,-4.3667,-4.3712,-4.3714,-4.3728,-4.3807,-4.3864,-4.3875,-4.3893,-4.388,-4.3903,-4.3929,-4.3928,-4.404,-4.4016,-4.403,-4.406,-4.4171,-4.4175,-4.4179,-4.4187,-4.4194,-4.4199,0,0,0,0,0,0,-4.3665,-4.3718,-4.3721,-4.3783,-4.3819,-4.3865,-4.3895,-4.3899,-4.394,-4.3937,-4.3958,-4.3969,-4.4028,-4.405,-4.4023,-4.4123,-4.4104,-4.4111,-4.4105,-4.4112,-4.4117,-4.4109,-4.4013,0,0,0,0,0,-4.3672,-4.3714,-4.3759,-4.3809,-4.3827,-4.3858,-4.3884,-4.3896,-4.3934,-4.3949,-4.3979,-4.4016,-4.406,-4.4087,-4.413,-4.4194,-4.4205,-4.4222,-4.4227,-4.4231,-4.4236,-4.4273,-4.4281,-4.4194,-4.4194,-4.4194,0,0,-4.3687,-4.3721,-4.3746,-4.381,-4.3839,-4.3883,-4.3871,-4.3917,-4.3949,-4.3956,-4.4013,-4.4037,-4.408,-4.4143,-4.4172,-4.4163,-4.4263,-4.4236,-4.4239,-4.4242,-4.4278,-4.4286,-4.4293,-4.4197,-4.4197,-4.4196,0,0,-4.3735,-4.3765,-4.3811,-4.3842,-4.3888,-4.3909,-4.392,-4.3967,-4.3983,-4.4042,-4.4048,-4.4088,-4.4162,-4.4193,-4.4219,-4.4284,-4.4285,-4.4298,-4.4323,-4.4359,-4.4366,-4.4372,-4.4395,-4.4403,-4.4303,-4.4303,-4.4303,0,-4.3747,-4.3812,-4.3834,-4.3881,-4.3909,-4.392,-4.3967,-4.3996,-4.4052,-4.4072,-4.4062,-4.4158,-4.4187,-4.4258,-4.4274,-4.4295,-4.4309,-4.4291,-4.4363,-4.437,-4.4376,-4.4398,-4.4407,-4.4304,-4.4304,-4.4304,-4.4304,0,-4.3825,-4.3871,-4.3903,-4.3959,-4.3991,-4.4038,-4.4067,-4.4098,-4.4108,-4.4131,-4.4192,-4.4229,-4.4279,-4.4298,-4.4307,-4.4371,-4.4364,-4.4359,-4.434,-4.4385,-4.4406,-4.4415,-4.4306,-4.4305,-4.4305,-4.4305,0,0,-4.387,-4.3941,-4.3952,-4.3979,-4.4033,-4.4069,-4.4117,-4.4168,-4.4194,-4.4234,-4.4275,-4.4341,-4.4337,-4.4366,-4.438,-4.4412,-4.4463,-4.4403,-4.4405,-4.4412,-4.4535,-4.4537,-4.4547,-4.4465,-4.4467,-4.4468,-4.4531,0,-4.3924,-4.401,-4.4033,-4.4106,-4.4149,-4.4162,-4.4205,-4.4243,-4.4266,-4.4307,-4.4333,-4.4379,-4.4371,-4.4389,-4.4421,-4.4449,-4.4487,-4.4445,-4.4503,-4.4505,-4.449,-4.4558,-4.456,-4.4617,-4.454,-4.4541,-4.4542,0,-4.3996,-4.404,-4.4118,-4.4168,-4.4187,-4.4225,-4.4275,-4.4314,-4.4358,-4.4373,-4.4408,-4.442,-4.4472,-4.4453,-4.4526,-4.4497,-4.4523,-4.4541,-4.4544,-4.4548,-4.4524,-4.4563,-4.4636,-4.4644,-4.4556,-4.4555,-4.4554,0,-4.4021,-4.4099,-4.4156,-4.4179,-4.4239,-4.4266,-4.4292,-4.4335,-4.4365,-4.441,-4.443,-4.4479,-4.4506,-4.4545,-4.457,-4.4554,-4.4641,-4.4624,-4.4655,-4.4655,-4.467,-4.4668,-4.4747,-4.469,-4.469,-4.469,-4.469,0,-4.4077,-4.4123,-4.4168,-4.4203,-4.4257,-4.4285,-4.4337,-4.4364,-4.4403,-4.4444,-4.4459,-4.4497,-4.453,-4.4573,-4.4594,-4.4652,-4.4664,-4.4678,-4.4682,-4.4675,-4.4673,-4.469,-4.4686,-4.4692,-4.4692,-4.4691,-4.4691,0,-4.4111,-4.4143,-4.4206,-4.426,-4.4275,-4.4312,-4.4358,-4.4393,-4.4419,-4.4471,-4.4485,-4.4526,-4.4578,-4.4608,-4.4673,-4.4688,-4.4751,-4.4755,-4.4736,-4.4738,-4.4767,-4.4763,-4.4857,-4.4871,-4.4807,-4.4807,-4.4808,0,-4.4144,-4.418,-4.4239,-4.4268,-4.4295,-4.4342,-4.4373,-4.4403,-4.4436,-4.4491,-4.452,-4.4573,-4.4617,-4.47,-4.4735,-4.4786,-4.479,-4.482,-4.4797,-4.479,-4.4789,-4.4786,-4.479,-4.4822,-4.4823,-4.4824,-4.4824,0,-4.4197,-4.4213,-4.4257,-4.4309,-4.4347,-4.4389,-4.4431,-4.4454,-4.4491,-4.4527,-4.4581,-4.4616,-4.4684,-4.4737,-4.4791,-4.4819,-4.4828,-4.4832,-4.4841,-4.4833,-4.482,-4.4827,-4.4745,-4.4828,-4.4828,-4.4827,-4.4827,-4.4827,-4.4231,-4.4265,-4.4312,-4.4363,-4.4398,-4.4438,-4.4474,-4.4506,-4.4552,-4.461,-4.4626,-4.4682,-4.4729,-4.4804,-4.4834,-4.4879,-4.4874,-4.4888,-4.4891,-4.4894,-4.4894,-4.4815,-4.4889,-4.4889,-4.4889,-4.4889,-4.4889,0,-4.4285,-4.4317,-4.4364,-4.4423,-4.4463,-4.447,-4.4518,-4.4551,-4.4601,-4.4645,-4.4689,-4.4752,-4.4804,-4.4846,-4.49,-4.4929,-4.4934,-4.4942,-4.4939,-4.4945,-4.4896,-4.4882,-4.4936,-4.4936,-4.4936,-4.4936,-4.4936,-4.4936,-4.4317,-4.4375,-4.4397,-4.4474,-4.4506,-4.4562,-4.4589,-4.4626,-4.4661,-4.4731,-4.4775,-4.4803,-4.4846,-4.4904,-4.4954,-4.4965,-4.4983,-4.499,-4.5001,-4.4954,-4.4948,-4.4943,-4.493,-4.4994,-4.4994,-4.5047,-4.5047,-4.5048]},{"header":{"parameterUnit":"m.s-1","parameterCategory":1,"la1":30.2991,"la2":30.254,"lo1":-89.0895,"lo2":-89.0444,"dy":0.0017,"dx":0.0017,"nx":28,"ny":28,"refTime":"2026-02-13T03:00:00:Z","depth":0,"parameterNumber":3,"parameterNumberName":"V-component_of_WINDS"},"data":[0,0,0,0,0,0,0,0,0,0,0,0,0,0,0,0,0,0,0,0,0,0,0,0,0,0,0,0,0,0,0,0,0,0,0,0,0,0,0,0,0,0,0,0,0,0,0,0,0,0,0,0,0,0,0,0,0,0,2.6734,2.6734,0,2.6745,2.6745,2.6745,2.6775,2.6776,2.6777,2.6777,2.6784,2.6783,2.6783,0,0,0,0,0,0,0,0,0,0,0,0,0,2.6736,2.6735,2.6734,2.6734,2.6734,2.6745,2.6745,2.6745,2.6775,2.6776,2.6777,2.6778,2.6784,2.6783,2.6783,0,0,0,0,0,0,0,0,0,0,0,0,0,2.6739,2.6735,2.6734,2.6751,2.6752,2.6745,2.6745,2.6745,2.6775,2.6776,2.6777,2.6778,2.6784,2.6783,2.6783,2.6759,0,0,2.6781,2.678,0,0,0,0,0,0,0,0,2.6739,2.6739,2.6748,2.6749,2.6751,2.676,2.6748,2.675,2.6775,2.6766,2.6777,2.6778,2.6775,2.6775,2.6775,2.6759,2.6759,2.6781,2.678,2.678,2.678,0,0,0,0,0,0,0,2.6739,2.6739,2.6738,2.6748,2.675,2.6757,2.6758,2.6749,2.6764,2.6767,2.6769,2.677,2.6776,2.6775,2.6775,2.6759,2.6781,2.678,2.678,2.6779,2.6728,2.6727,0,0,0,0,0,0,2.6737,2.6739,2.6738,2.6739,2.6748,2.6756,2.6758,2.6756,2.6765,2.6767,2.677,2.6772,2.6776,2.6776,2.6775,2.675,2.678,2.6779,2.6779,2.6729,2.6728,2.6727,0,0,0,0,0,0,2.6737,2.6736,2.6737,2.6739,2.674,2.6755,2.6753,2.6756,2.6755,2.6767,2.6769,2.6766,2.6777,2.6776,2.6764,2.6751,2.6779,2.6778,2.673,2.6729,2.6728,2.6699,0,0,0,0,0,0,2.6737,2.6736,2.6728,2.6739,2.674,2.6726,2.6752,2.6755,2.6755,2.6758,2.6764,2.6766,2.6777,2.6765,2.6763,2.6751,2.6778,2.6732,2.673,2.6728,2.6701,2.6696,2.6693,0,0,0,0,0,2.6737,2.6717,2.6727,2.6727,2.673,2.6726,2.6726,2.674,2.6753,2.6745,2.6753,2.6766,2.6752,2.6763,2.6762,2.6749,2.6732,2.673,2.6728,2.6703,2.6697,2.6693,0,0,0,0,0,0,2.6702,2.6719,2.673,2.6714,2.6719,2.6731,2.672,2.6734,2.6733,2.6735,2.6752,2.6753,2.6739,2.6742,2.6754,2.6728,2.6745,2.6742,2.6726,2.6721,2.6717,2.6717,2.6777,0,0,0,0,0,2.6693,2.6689,2.6704,2.6688,2.669,2.6705,2.6704,2.6715,2.6719,2.672,2.6727,2.673,2.6727,2.6724,2.6721,2.6702,2.6704,2.6692,2.6688,2.6684,2.6682,2.6675,2.667,2.672,2.672,2.672,0,0,2.6673,2.6682,2.6678,2.6682,2.6686,2.6682,2.6706,2.6699,2.6697,2.6719,2.6709,2.6714,2.6718,2.6703,2.6696,2.6705,2.6669,2.6682,2.6679,2.6679,2.6672,2.6667,2.6663,2.6719,2.6719,2.6719,0,0,2.6635,2.6641,2.6631,2.6636,2.6644,2.6654,2.6651,2.6662,2.6667,2.6658,2.6676,2.6672,2.6665,2.6668,2.6669,2.6636,2.6649,2.6634,2.6613,2.6605,2.6601,2.6598,2.6588,2.6584,2.6632,2.6631,2.6631,0,2.6609,2.6605,2.6623,2.6617,2.6618,2.6641,2.663,2.6634,2.6639,2.664,2.665,2.6644,2.6648,2.6636,2.6628,2.6627,2.6625,2.6633,2.6601,2.6598,2.6595,2.6585,2.6581,2.663,2.663,2.663,2.663,0,2.6574,2.657,2.6561,2.6569,2.6569,2.656,2.6577,2.6575,2.6586,2.6596,2.6587,2.6593,2.6593,2.6591,2.66,2.658,2.6586,2.6598,2.6616,2.6588,2.658,2.6576,2.6627,2.6628,2.6629,2.6629,0,0,2.6513,2.6534,2.653,2.6536,2.6547,2.6544,2.6537,2.654,2.6539,2.6542,2.6537,2.6533,2.6545,2.6546,2.6557,2.655,2.6526,2.6563,2.6564,2.6558,2.6507,2.6498,2.6494,2.6535,2.6534,2.6534,2.6507,0,2.648,2.6471,2.6488,2.6474,2.6473,2.6495,2.6489,2.6496,2.6504,2.6504,2.6513,2.651,2.6526,2.6527,2.6521,2.653,2.6516,2.6532,2.6531,2.653,2.653,2.6489,2.648,2.6454,2.6504,2.6503,2.6503,0,2.6439,2.6444,2.6431,2.6447,2.6447,2.6441,2.6446,2.6445,2.6453,2.646,2.6463,2.6476,2.6471,2.6488,2.6481,2.6491,2.6492,2.6496,2.6495,2.6496,2.6515,2.6491,2.6446,2.6443,2.6497,2.6498,2.6498,0,2.6399,2.6402,2.6396,2.6399,2.6416,2.6412,2.6419,2.6428,2.643,2.6433,2.6435,2.6437,2.6439,2.644,2.6454,2.6465,2.6446,2.6464,2.6452,2.6452,2.6448,2.6448,2.6404,2.6446,2.6446,2.6446,2.6446,0,2.636,2.6352,2.6379,2.6375,2.6367,2.6386,2.6377,2.6386,2.6394,2.6392,2.6411,2.6408,2.6427,2.6426,2.6437,2.6431,2.6431,2.6437,2.644,2.6436,2.6435,2.6437,2.6439,2.6445,2.6445,2.6445,2.6445,0,2.6314,2.6332,2.6327,2.6344,2.6349,2.6342,2.6357,2.6354,2.6365,2.6363,2.6363,2.638,2.6381,2.6395,2.6398,2.6406,2.6395,2.6401,2.6393,2.6396,2.6384,2.6386,2.6341,2.6336,2.6379,2.6379,2.6378,0,2.6289,2.6284,2.6302,2.6304,2.631,2.6311,2.6314,2.6333,2.6335,2.6346,2.6342,2.6344,2.6348,2.6348,2.636,2.6363,2.637,2.6354,2.637,2.6367,2.6372,2.6373,2.6373,2.6351,2.635,2.635,2.6349,0,2.6244,2.6253,2.6257,2.6265,2.6268,2.6274,2.6282,2.6281,2.6302,2.6303,2.6306,2.6309,2.6314,2.6317,2.6323,2.6329,2.6343,2.6344,2.6342,2.6338,2.6335,2.6339,2.6386,2.6345,2.6346,2.6346,2.6346,2.6346,2.6209,2.6206,2.622,2.6224,2.6232,2.6239,2.6239,2.6251,2.6254,2.6261,2.6272,2.6273,2.6283,2.6293,2.6298,2.6299,2.6307,2.6304,2.6303,2.6302,2.6301,2.6334,2.63,2.63,2.63,2.6301,2.6301,0,2.6166,2.6176,2.618,2.6192,2.6195,2.621,2.622,2.6222,2.6223,2.6232,2.6236,2.624,2.6244,2.6257,2.6263,2.6261,2.6268,2.6262,2.6263,2.6264,2.6292,2.6295,2.6257,2.6257,2.6257,2.6257,2.6257,2.6257,2.6144,2.6142,2.6153,2.6155,2.6165,2.6169,2.6173,2.618,2.6188,2.6192,2.6196,2.6206,2.6217,2.6224,2.6228,2.6232,2.6233,2.6226,2.6232,2.6258,2.6262,2.6266,2.6268,2.6225,2.6225,2.6204,2.6204,2.6204]}]]